Project,Study,Ord_Occ,Event_Num,Cast_ID,Date_Time_UTC,Date_Time_PST,Lat_Dec,Lon_Dec,Sta_ID,Line,Sta,Depth,Pressure,PrQ,Temp1,Temp1Q,Temp2,Temp2Q,TempAve,Salt1,Salt1Q,Salt1_Corr,Salt2,Salt2Q,Salt2_Corr,SaltAve_Corr,Ox1,Ox1Q,Ox1_CruiseCorr,Ox1_StaCorr,Ox2,Ox2Q,Ox2_CruiseCorr,Ox2_StaCorr,OxAve_StaCorr,Ox1uM,Ox1uM_CruiseCorr,Ox1uM_StaCorr,Ox2uM,Ox2uM_CruiseCorr,Ox2uM_StaCorr,OxAveuM_StaCorr,FluorV,FluorQ,EstChl_CruiseCorr,EstChl_StaCorr,ISUSV,ISUSQ,EstNO3_CruiseCorr,EstNO3_StaCorr,SigThetaTS1,SigThetaTS1Q,SigThetaTS2,SigThetaTS2Q,BAT,XMiss,TransQ,pH,pHQ,SPAR,SPARQ,PAR,PARQ,PoT1,PoT2,DynHt,SVA,OxSat1,OxSat2,BTL_Depth,BTL_Temp,SaltB,OxB,OxBuM,Chl-a,Phaeo,NO3,NO2,NH4,PO4,SIL
CalCOFI,2007SR,057,59,2007_057u,24-Jul-2020 05:33:23,23-Jul-2020 21:33:23,33.81487,-121.84342,080.0 070.0,080.0,070.0,516.000,520.353,,5.5527,,5.5516,,5.5522,34.2295,,34.2297,34.2318,,34.2334,34.2316,0.3778,,0.3771,0.4000,,,,,,16.428,16.6611,40.3735,,,,,0.0321,,,,-99.0,,-99.0,-99.0,27.0044,,27.0063,,0.6364,85.2904,,7.528,,1.9043E+00,,1.0000E-12,,5.5092,5.5081,0.8945,,5.384,,,,,,,,,,,,,
CalCOFI,2007SR,057,59,2007_057u,24-Jul-2020 05:34:36,23-Jul-2020 21:34:36,33.81480,-121.84342,080.0 070.0,080.0,070.0,515.000,519.344,,5.5551,,5.5546,,5.5549,34.2290,,34.2292,34.2307,,34.2323,34.2308,0.3732,,0.3723,0.3952,,,,,,16.232,16.4565,40.2366,,,,,0.0327,,,,-99.0,,-99.0,-99.0,27.0037,,27.0051,,0.6357,85.3070,,7.529,,1.9043E+00,,1.0000E-12,,5.5116,5.5111,0.9004,,5.320,,515,5.555,34.2255,0.396,17.28,,,39.87,0.00,0.00,3.15,84.08
CalCOFI,2007SR,057,59,2007_057u,24-Jul-2020 05:34:53,23-Jul-2020 21:34:53,33.81481,-121.84342,080.0 070.0,080.0,070.0,514.000,518.334,,5.5526,,5.5527,,5.5527,34.2288,,34.2290,34.2302,,34.2318,34.2304,0.3807,,0.3801,0.4030,,,,,,16.555,16.7937,40.4622,,,,,0.0331,,,,-99.0,,-99.0,-99.0,27.0038,,27.0049,,0.6353,85.3149,,7.529,,1.9043E+00,,1.0000E-12,,5.5093,5.5094,0.9010,,5.425,,,,,,,,,,,,,
CalCOFI,2007SR,057,59,2007_057u,24-Jul-2020 05:34:54,23-Jul-2020 21:34:54,33.81481,-121.84342,080.0 070.0,080.0,070.0,513.000,517.324,,5.5533,,5.5534,,5.5534,34.2276,,34.2278,34.2289,,34.2305,34.2292,0.3785,,0.3778,0.4007,,,,,,16.461,16.6955,40.3966,,,,,0.0317,,,,-99.0,,-99.0,-99.0,27.0028,,27.0038,,0.6354,85.3131,,7.529,,1.9043E+00,,1.0000E-12,,5.5101,5.5101,0.9010,,5.394,,,,,,,,,,,,,
CalCOFI,2007SR,057,59,2007_057u,24-Jul-2020 05:34:55,23-Jul-2020 21:34:55,33.81482,-121.84342,080.0 070.0,080.0,070.0,512.000,516.314,,5.5536,,5.5535,,5.5536,34.2252,,34.2254,34.2265,,34.2281,34.2268,0.3862,,0.3858,0.4087,,,,,,16.792,17.0411,40.6277,,,,,0.0331,,,,-99.0,,-99.0,-99.0,27.0008,,27.0019,,0.6361,85.2984,,7.529,,1.9043E+00,,1.0000E-12,,5.5104,5.5103,0.9010,,5.503,,,,,,,,,,,,,
CalCOFI,2007SR,057,59,2007_057u,24-Jul-2020 05:34:57,23-Jul-2020 21:34:57,33.81482,-121.84342,080.0 070.0,080.0,070.0,511.000,515.305,,5.5548,,5.5555,,5.5552,34.2234,,34.2236,34.2243,,34.2259,34.2248,0.3905,,0.3903,0.4132,,,,,,16.982,17.2394,40.7604,,,,,0.0327,,,,-99.0,,-99.0,-99.0,26.9993,,26.9999,,0.6353,85.3143,,7.529,,1.9043E+00,,1.0000E-12,,5.5117,5.5124,0.9010,,5.565,,,,,,,,,,,,,
CalCOFI,2007SR,057,59,2007_057u,24-Jul-2020 05:34:58,23-Jul-2020 21:34:58,33.81482,-121.84342,080.0 070.0,080.0,070.0,510.000,514.295,,5.5605,,5.5611,,5.5608,34.2213,,34.2215,34.2224,,34.2240,34.2228,0.3904,,0.3902,0.4131,,,,,,16.977,17.2342,40.7569,,,,,0.0331,,,,-99.0,,-99.0,-99.0,26.9969,,26.9978,,0.6357,85.3054,,7.529,,1.9043E+00,,1.0000E-12,,5.5175,5.5181,0.9010,,5.564,,,,,,,,,,,,,
CalCOFI,2007SR,057,59,2007_057u,24-Jul-2020 05:34:59,23-Jul-2020 21:34:59,33.81482,-121.84342,080.0 070.0,080.0,070.0,509.000,513.286,,5.5629,,5.5630,,5.5630,34.2205,,34.2207,34.2220,,34.2236,34.2222,0.3908,,0.3906,0.4135,2.1307,,1.1454,0.6398,0.5267,16.995,17.2530,40.7695,92.657,,47.9153,44.3424,0.0324,,,,-99.0,,-99.0,-99.0,26.9960,,26.9972,,0.6355,85.3112,,7.529,,1.9043E+00,,1.0000E-12,,5.5200,5.5200,0.9010,,5.570,30.369,,,,,,,,,,,,
CalCOFI,2007SR,057,59,2007_057u,24-Jul-2020 05:35:00,23-Jul-2020 21:35:00,33.81482,-121.84342,080.0 070.0,080.0,070.0,508.000,512.276,,5.5632,,5.5633,,5.5633,34.2203,,34.2205,34.2218,,34.2234,34.2220,0.3933,,0.3933,0.4161,2.1233,,1.1278,0.6216,0.5189,17.104,17.3668,40.8456,92.334,,47.3872,44.1164,0.0323,,,,-99.0,,-99.0,-99.0,26.9958,,26.9970,,0.6353,85.3148,,7.529,,1.9043E+00,,1.0000E-12,,5.5204,5.5204,0.9010,,5.606,30.264,,,,,,,,,,,,
CalCOFI,2007SR,057,59,2007_057u,24-Jul-2020 05:35:01,23-Jul-2020 21:35:01,33.81482,-121.84342,080.0 070.0,080.0,070.0,507.000,511.266,,5.5634,,5.5634,,5.5634,34.2203,,34.2205,34.2217,,34.2233,34.2219,0.3957,,0.3958,0.4186,2.1337,,1.1526,0.6472,0.5329,17.207,17.4743,40.9176,92.785,,48.1246,44.5211,0.0335,,,,-99.0,,-99.0,-99.0,26.9958,,26.9968,,0.6355,85.3108,,7.529,,1.9043E+00,,1.0000E-12,,5.5206,5.5206,0.9010,,5.640,30.411,,,,,,,,,,,,
CalCOFI,2007SR,057,59,2007_057u,24-Jul-2020 05:35:02,23-Jul-2020 21:35:02,33.81482,-121.84342,080.0 070.0,080.0,070.0,506.000,510.257,,5.5637,,5.5637,,5.5637,34.2197,,34.2199,34.2211,,34.2227,34.2213,0.3910,,0.3909,0.4137,2.1342,,1.1538,0.6484,0.5311,17.003,17.2613,40.7751,92.807,,48.1606,44.4679,0.0324,,,,-99.0,,-99.0,-99.0,26.9952,,26.9964,,0.6360,85.2999,,7.529,,1.9043E+00,,1.0000E-12,,5.5210,5.5210,0.9010,,5.573,30.419,,,,,,,,,,,,
CalCOFI,2007SR,057,59,2007_057u,24-Jul-2020 05:35:03,23-Jul-2020 21:35:03,33.81482,-121.84342,080.0 070.0,080.0,070.0,505.000,509.247,,5.5631,,5.5631,,5.5631,34.2188,,34.2190,34.2201,,34.2217,34.2204,0.3925,,0.3924,0.4153,2.1235,,1.1282,0.6221,0.5187,17.066,17.3271,40.8191,92.344,,47.4036,44.1114,0.0328,,,,-99.0,,-99.0,-99.0,26.9945,,26.9956,,0.6354,85.3136,,7.529,,1.9043E+00,,1.0000E-12,,5.5205,5.5205,0.9010,,5.593,30.266,,,,,,,,,,,,
CalCOFI,2007SR,057,59,2007_057u,24-Jul-2020 05:35:04,23-Jul-2020 21:35:04,33.81482,-121.84344,080.0 070.0,080.0,070.0,504.000,508.237,,5.5627,,5.5628,,5.5628,34.2184,,34.2186,34.2197,,34.2213,34.2200,0.4001,,0.4004,0.4232,2.1289,,1.1411,0.6354,0.5293,17.398,17.6737,41.0510,92.578,,47.7862,44.4186,0.0319,,,,-99.0,,-99.0,-99.0,26.9943,,26.9953,,0.6353,85.3148,,7.529,,1.9043E+00,,1.0000E-12,,5.5202,5.5203,0.9010,,5.702,30.343,,,,,,,,,,,,
CalCOFI,2007SR,057,59,2007_057u,24-Jul-2020 05:35:05,23-Jul-2020 21:35:05,33.81482,-121.84344,080.0 070.0,080.0,070.0,503.000,507.228,,5.5649,,5.5656,,5.5653,34.2178,,34.2180,34.2189,,34.2205,34.2193,0.4039,,0.4043,0.4272,2.1273,,1.1373,0.6315,0.5294,17.563,17.8459,41.1662,92.508,,47.6717,44.4190,0.0327,,,,-99.0,,-99.0,-99.0,26.9936,,26.9944,,0.6353,85.3148,,7.529,,1.9043E+00,,1.0000E-12,,5.5225,5.5232,0.9010,,5.757,30.322,,,,,,,,,,,,
CalCOFI,2007SR,057,59,2007_057u,24-Jul-2020 05:35:06,23-Jul-2020 21:35:06,33.81482,-121.84344,080.0 070.0,080.0,070.0,502.000,506.218,,5.5690,,5.5704,,5.5697,34.2170,,34.2172,34.2180,,34.2196,34.2184,0.4047,,0.4052,0.4280,2.1223,,1.1254,0.6192,0.5236,17.598,17.8825,41.1906,92.292,,47.3185,44.2546,0.0334,,,,-99.0,,-99.0,-99.0,26.9924,,26.9931,,0.6356,85.3086,,7.529,,1.9043E+00,,1.0000E-12,,5.5266,5.5280,0.9010,,5.769,30.254,,,,,,,,,,,,
CalCOFI,2007SR,057,59,2007_057u,24-Jul-2020 05:35:08,23-Jul-2020 21:35:08,33.81483,-121.84344,080.0 070.0,080.0,070.0,501.000,505.208,,5.5805,,5.5803,,5.5804,34.2143,,34.2145,34.2159,,34.2175,34.2160,0.4128,,0.4136,0.4364,2.1270,,1.1366,0.6307,0.5336,17.952,18.2520,41.4379,92.494,,47.6488,44.5434,0.0334,,,,-99.0,,-99.0,-99.0,26.9889,,26.9902,,0.6353,85.3149,,7.529,,1.9043E+00,,1.0000E-12,,5.5382,5.5380,0.9010,,5.886,30.327,,,,,,,,,,,,
CalCOFI,2007SR,057,59,2007_057u,24-Jul-2020 05:35:09,23-Jul-2020 21:35:09,33.81484,-121.84344,080.0 070.0,080.0,070.0,500.000,504.199,,5.5845,,5.5848,,5.5847,34.2136,,34.2138,34.2148,,34.2164,34.2151,0.4133,,0.4142,0.4369,2.1172,,1.1132,0.6066,0.5218,17.973,18.2739,41.4525,92.071,,46.9572,44.2049,0.0330,,,,-99.0,,-99.0,-99.0,26.9878,,26.9887,,0.6356,85.3078,,7.529,,1.9043E+00,,1.0000E-12,,5.5423,5.5426,0.9010,,5.893,30.191,,,,,,,,,,,,
CalCOFI,2007SR,057,59,2007_057u,24-Jul-2020 05:35:10,23-Jul-2020 21:35:10,33.81484,-121.84344,080.0 070.0,080.0,070.0,499.000,503.189,,5.5880,,5.5881,,5.5881,34.2126,,34.2128,34.2139,,34.2155,34.2142,0.4162,,0.4172,0.4400,2.1188,,1.1170,0.6106,0.5253,18.099,18.4054,41.5405,92.141,,47.0717,44.3061,0.0327,,,,-99.0,,-99.0,-99.0,26.9866,,26.9877,,0.6353,85.3149,,7.529,,1.9043E+00,,1.0000E-12,,5.5458,5.5460,0.9010,,5.935,30.216,,,,,,,,,,,,
CalCOFI,2007SR,057,59,2007_057u,24-Jul-2020 05:35:10,23-Jul-2020 21:35:10,33.81484,-121.84344,080.0 070.0,080.0,070.0,498.000,502.179,,5.5908,,5.5912,,5.5910,34.2118,,34.2120,34.2131,,34.2147,34.2134,0.4178,,0.4189,0.4416,2.1207,,1.1215,0.6153,0.5285,18.169,18.4785,41.5894,92.223,,47.2057,44.3976,0.0318,,,,-99.0,,-99.0,-99.0,26.9857,,26.9866,,0.6353,85.3148,,7.529,,1.9043E+00,,1.0000E-12,,5.5488,5.5491,0.9010,,5.959,30.245,,,,,,,,,,,,
CalCOFI,2007SR,057,59,2007_057u,24-Jul-2020 05:35:11,23-Jul-2020 21:35:11,33.81484,-121.84344,080.0 070.0,080.0,070.0,497.000,501.170,,5.5957,,5.5959,,5.5958,34.2108,,34.2110,34.2121,,34.2137,34.2124,0.4178,,0.4189,0.4416,2.1202,,1.1204,0.6140,0.5278,18.168,18.4775,41.5887,92.201,,47.1698,44.3793,0.0322,,,,-99.0,,-99.0,-99.0,26.9842,,26.9853,,0.6357,85.3066,,7.529,,1.9043E+00,,1.0000E-12,,5.5537,5.5539,0.9010,,5.959,30.241,,,,,,,,,,,,
CalCOFI,2007SR,057,59,2007_057u,24-Jul-2020 05:35:12,23-Jul-2020 21:35:12,33.81484,-121.84344,080.0 070.0,080.0,070.0,496.000,500.160,,5.5989,,5.5991,,5.5990,34.2103,,34.2105,34.2116,,34.2132,34.2119,0.4189,,0.4200,0.4428,2.1198,,1.1194,0.6130,0.5279,18.215,18.5265,41.6216,92.181,,47.1371,44.3794,0.0323,,,,-99.0,,-99.0,-99.0,26.9834,,26.9844,,0.6353,85.3147,,7.529,,1.9043E+00,,1.0000E-12,,5.5570,5.5572,0.9010,,5.975,30.237,,,,,,,,,,,,
CalCOFI,2007SR,057,59,2007_057u,24-Jul-2020 05:35:13,23-Jul-2020 21:35:13,33.81484,-121.84344,080.0 070.0,080.0,070.0,495.000,499.151,,5.6004,,5.6004,,5.6004,34.2099,,34.2101,34.2113,,34.2129,34.2115,0.4214,,0.4226,0.4454,2.1194,,1.1184,0.6121,0.5288,18.324,18.6403,41.6977,92.166,,47.1125,44.4051,0.0323,,,,-99.0,,-99.0,-99.0,26.9830,,26.9841,,0.6353,85.3148,,7.529,,1.9043E+00,,1.0000E-12,,5.5586,5.5586,0.9010,,6.011,30.233,,,,,,,,,,,,
CalCOFI,2007SR,057,59,2007_057u,24-Jul-2020 05:35:14,23-Jul-2020 21:35:14,33.81484,-121.84344,080.0 070.0,080.0,070.0,494.000,498.141,,5.6010,,5.6012,,5.6011,34.2095,,34.2097,34.2109,,34.2125,34.2111,0.4188,,0.4199,0.4427,2.1191,,1.1177,0.6113,0.5270,18.213,18.5245,41.6202,92.153,,47.0913,44.3558,0.0327,,,,-99.0,,-99.0,-99.0,26.9826,,26.9836,,0.6358,85.3044,,7.529,,1.9043E+00,,1.0000E-12,,5.5593,5.5594,0.9010,,5.974,30.229,,,,,,,,,,,,
CalCOFI,2007SR,057,59,2007_057u,24-Jul-2020 05:35:15,23-Jul-2020 21:35:15,33.81484,-121.84344,080.0 070.0,080.0,070.0,493.000,497.131,,5.6014,,5.6014,,5.6014,34.2094,,34.2096,34.2107,,34.2123,34.2110,0.4241,,0.4254,0.4482,2.1192,,1.1180,0.6116,0.5299,18.445,18.7666,41.7822,92.157,,47.0978,44.4400,0.0321,,,,-99.0,,-99.0,-99.0,26.9824,,26.9835,,0.6353,85.3146,,7.529,,1.9043E+00,,1.0000E-12,,5.5597,5.5597,0.9010,,6.050,30.230,,,,,,,,,,,,
CalCOFI,2007SR,057,59,2007_057u,24-Jul-2020 05:35:17,23-Jul-2020 21:35:17,33.81484,-121.84344,080.0 070.0,080.0,070.0,492.000,496.122,,5.6026,,5.6028,,5.6027,34.2090,,34.2092,34.2103,,34.2119,34.2106,0.4199,,0.4211,0.4438,2.1181,,1.1153,0.6089,0.5264,18.258,18.5714,41.6516,92.111,,47.0226,44.3371,0.0321,,,,-99.0,,-99.0,-99.0,26.9819,,26.9829,,0.6353,85.3148,,7.529,,1.9043E+00,,1.0000E-12,,5.5610,5.5612,0.9010,,5.989,30.216,,,,,,,,,,,,
CalCOFI,2007SR,057,59,2007_057u,24-Jul-2020 05:35:18,23-Jul-2020 21:35:18,33.81484,-121.84344,080.0 070.0,080.0,070.0,491.000,495.112,,5.6040,,5.6043,,5.6042,34.2086,,34.2088,34.2099,,34.2115,34.2102,0.4247,,0.4261,0.4488,2.1181,,1.1153,0.6089,0.5289,18.467,18.7896,41.7975,92.110,,47.0210,44.4093,0.0319,,,,-99.0,,-99.0,-99.0,26.9815,,26.9824,,0.6355,85.3095,,7.529,,1.9043E+00,,1.0000E-12,,5.5625,5.5628,0.9010,,6.058,30.217,,,,,,,,,,,,
CalCOFI,2007SR,057,59,2007_057u,24-Jul-2020 05:35:19,23-Jul-2020 21:35:19,33.81484,-121.84344,080.0 070.0,080.0,070.0,490.000,494.103,,5.6052,,5.6054,,5.6053,34.2084,,34.2086,34.2098,,34.2114,34.2100,0.4278,,0.4293,0.4520,2.1178,,1.1146,0.6081,0.5301,18.605,18.9337,41.8939,92.095,,46.9964,44.4452,0.0321,,,,-99.0,,-99.0,-99.0,26.9811,,26.9822,,0.6353,85.3148,,7.529,,1.9043E+00,,1.0000E-12,,5.5638,5.5640,0.9010,,6.103,30.212,,,,,,,,,,,,
CalCOFI,2007SR,057,59,2007_057u,24-Jul-2020 05:35:20,23-Jul-2020 21:35:20,33.81484,-121.84344,080.0 070.0,080.0,070.0,489.000,493.093,,5.6074,,5.6074,,5.6074,34.2080,,34.2082,34.2095,,34.2111,34.2097,0.4247,,0.4261,0.4488,2.1174,,1.1137,0.6071,0.5280,18.469,18.7917,41.7989,92.078,,46.9687,44.3838,0.0320,,,,-99.0,,-99.0,-99.0,26.9805,,26.9817,,0.6355,85.3095,,7.529,,1.9043E+00,,1.0000E-12,,5.5661,5.5660,0.9010,,6.059,30.208,,,,,,,,,,,,
CalCOFI,2007SR,057,59,2007_057u,24-Jul-2020 05:35:20,23-Jul-2020 21:35:20,33.81484,-121.84344,080.0 070.0,080.0,070.0,488.000,492.084,,5.6099,,5.6101,,5.6100,34.2077,,34.2079,34.2089,,34.2105,34.2092,0.4276,,0.4291,0.4518,2.1170,,1.1127,0.6062,0.5290,18.595,18.9232,41.8869,92.060,,46.9392,44.4131,0.0330,,,,-99.0,,-99.0,-99.0,26.9800,,26.9809,,0.6354,85.3136,,7.529,,1.9043E+00,,1.0000E-12,,5.5686,5.5688,0.9010,,6.101,30.204,,,,,,,,,,,,
CalCOFI,2007SR,057,59,2007_057u,24-Jul-2020 05:35:21,23-Jul-2020 21:35:21,33.81484,-121.84344,080.0 070.0,080.0,070.0,487.000,491.074,,5.6127,,5.6129,,5.6128,34.2071,,34.2073,34.2085,,34.2101,34.2087,0.4328,,0.4345,0.4572,2.1165,,1.1115,0.6049,0.5311,18.819,19.1571,42.0434,92.041,,46.9082,44.4758,0.0328,,,,-99.0,,-99.0,-99.0,26.9791,,26.9802,,0.6353,85.3148,,7.529,,1.9043E+00,,1.0000E-12,,5.5715,5.5717,0.9010,,6.175,30.200,,,,,,,,,,,,
CalCOFI,2007SR,057,59,2007_057u,24-Jul-2020 05:35:22,23-Jul-2020 21:35:22,33.81484,-121.84344,080.0 070.0,080.0,070.0,486.000,490.065,,5.6152,,5.6156,,5.6154,34.2061,,34.2063,34.2073,,34.2089,34.2076,0.4346,,0.4364,0.4591,2.1138,,1.1051,0.5983,0.5287,18.898,19.2395,42.0986,91.923,,46.7152,44.4069,0.0326,,,,-99.0,,-99.0,-99.0,26.9780,,26.9790,,0.6353,85.3148,,7.529,,1.9043E+00,,1.0000E-12,,5.5741,5.5745,0.9010,,6.201,30.163,,,,,,,,,,,,
CalCOFI,2007SR,057,59,2007_057u,24-Jul-2020 05:35:23,23-Jul-2020 21:35:23,33.81486,-121.84345,080.0 070.0,080.0,070.0,485.000,489.055,,5.6183,,5.6189,,5.6186,34.2051,,34.2053,34.2062,,34.2078,34.2066,0.4349,,0.4367,0.4594,2.1139,,1.1053,0.5985,0.5290,18.914,19.2562,42.1097,91.926,,46.7201,44.4149,0.0332,,,,-99.0,,-99.0,-99.0,26.9769,,26.9777,,0.6359,85.3010,,7.530,,1.9043E+00,,1.0000E-12,,5.5773,5.5778,0.9010,,6.207,30.166,,,,,,,,,,,,
CalCOFI,2007SR,057,59,2007_057u,24-Jul-2020 05:35:25,23-Jul-2020 21:35:25,33.81485,-121.84344,080.0 070.0,080.0,070.0,484.000,488.045,,5.6252,,5.6260,,5.6256,34.2039,,34.2041,34.2053,,34.2069,34.2055,0.4393,,0.4413,0.4640,2.1162,,1.1108,0.6042,0.5341,19.104,19.4546,42.2424,92.027,,46.8853,44.5639,0.0327,,,,-99.0,,-99.0,-99.0,26.9750,,26.9760,,0.6358,85.3035,,7.530,,1.9043E+00,,1.0000E-12,,5.5842,5.5850,0.9010,,6.270,30.204,,,,,,,,,,,,
CalCOFI,2007SR,057,59,2007_057u,24-Jul-2020 05:35:26,23-Jul-2020 21:35:26,33.81485,-121.84344,080.0 070.0,080.0,070.0,483.000,487.036,,5.6305,,5.6315,,5.6310,34.2036,,34.2038,34.2048,,34.2064,34.2051,0.4368,,0.4387,0.4614,2.1143,,1.1063,0.5995,0.5305,18.996,19.3418,42.1670,91.945,,46.7512,44.4591,0.0327,,,,-99.0,,-99.0,-99.0,26.9742,,26.9750,,0.6361,85.2988,,7.530,,1.9043E+00,,1.0000E-12,,5.5896,5.5906,0.9010,,6.235,30.180,,,,,,,,,,,,
CalCOFI,2007SR,057,59,2007_057u,24-Jul-2020 05:35:27,23-Jul-2020 21:35:27,33.81486,-121.84344,080.0 070.0,080.0,070.0,482.000,486.026,,5.6367,,5.6372,,5.6370,34.2027,,34.2029,34.2038,,34.2054,34.2042,0.4460,,0.4483,0.4710,2.1113,,1.0991,0.5921,0.5316,19.394,19.7573,42.4450,91.816,,46.5403,44.4927,0.0328,,,,-99.0,,-99.0,-99.0,26.9727,,26.9735,,0.6353,85.3148,,7.529,,1.9043E+00,,1.0000E-12,,5.5959,5.5963,0.9010,,6.367,30.142,,,,,,,,,,,,
CalCOFI,2007SR,057,59,2007_057u,24-Jul-2020 05:35:28,23-Jul-2020 21:35:28,33.81486,-121.84344,080.0 070.0,080.0,070.0,481.000,485.017,,5.6407,,5.6412,,5.6410,34.2022,,34.2024,34.2036,,34.2052,34.2038,0.4518,,0.4544,0.4770,2.1127,,1.1024,0.5956,0.5363,19.650,20.0245,42.6237,91.873,,46.6335,44.6286,0.0320,,,,-99.0,,-99.0,-99.0,26.9718,,26.9729,,0.6357,85.3060,,7.529,,1.9043E+00,,1.0000E-12,,5.6000,5.6005,0.9010,,6.451,30.163,,,,,,,,,,,,
CalCOFI,2007SR,057,59,2007_057u,24-Jul-2020 05:35:29,23-Jul-2020 21:35:29,33.81486,-121.84344,080.0 070.0,080.0,070.0,480.000,484.007,,5.6501,,5.6509,,5.6505,34.2010,,34.2012,34.2023,,34.2039,34.2026,0.4562,,0.4590,0.4816,2.1143,,1.1063,0.5995,0.5406,19.838,20.2208,42.7550,91.947,,46.7545,44.7548,0.0325,,,,-99.0,,-99.0,-99.0,26.9697,,26.9706,,0.6357,85.3054,,7.530,,1.9043E+00,,1.0000E-12,,5.6094,5.6102,0.9010,,6.514,30.194,,,,,,,,,,,,
CalCOFI,2007SR,057,59,2007_057u,24-Jul-2020 05:35:30,23-Jul-2020 21:35:30,33.81486,-121.84344,080.0 070.0,080.0,070.0,479.000,482.998,,5.6602,,5.6609,,5.6606,34.1988,,34.1990,34.2002,,34.2018,34.2004,0.4586,,0.4615,0.4841,2.1118,,1.1003,0.5934,0.5388,19.943,20.3304,42.8284,91.834,,46.5697,44.6991,0.0333,,,,-99.0,,-99.0,-99.0,26.9668,,26.9677,,0.6353,85.3147,,7.531,,1.9043E+00,,1.0000E-12,,5.6195,5.6203,0.9010,,6.550,30.164,,,,,,,,,,,,
CalCOFI,2007SR,057,59,2007_057u,24-Jul-2020 05:35:31,23-Jul-2020 21:35:31,33.81486,-121.84344,080.0 070.0,080.0,070.0,478.000,481.988,,5.6650,,5.6648,,5.6649,34.1976,,34.1978,34.1990,,34.2006,34.1992,0.4585,,0.4614,0.4840,2.1112,,1.0989,0.5919,0.5380,19.938,20.3252,42.8249,91.813,,46.5354,44.6802,0.0324,,,,-99.0,,-99.0,-99.0,26.9652,,26.9663,,0.6353,85.3148,,7.530,,1.9043E+00,,1.0000E-12,,5.6244,5.6243,0.9010,,6.549,30.159,,,,,,,,,,,,
CalCOFI,2007SR,057,59,2007_057u,24-Jul-2020 05:35:32,23-Jul-2020 21:35:32,33.81486,-121.84344,080.0 070.0,080.0,070.0,477.000,480.979,,5.6655,,5.6656,,5.6656,34.1974,,34.1976,34.1986,,34.2002,34.1989,0.4595,,0.4624,0.4850,2.1111,,1.0986,0.5917,0.5384,19.984,20.3732,42.8570,91.805,,46.5223,44.6897,0.0325,,,,-99.0,,-99.0,-99.0,26.9649,,26.9659,,0.6353,85.3148,,7.533,,1.9043E+00,,1.0000E-12,,5.6250,5.6251,0.9010,,6.565,30.157,,,,,,,,,,,,
CalCOFI,2007SR,057,59,2007_057u,24-Jul-2020 05:35:33,23-Jul-2020 21:35:33,33.81486,-121.84344,080.0 070.0,080.0,070.0,476.000,479.969,,5.6662,,5.6667,,5.6665,34.1972,,34.1974,34.1983,,34.1999,34.1987,0.4584,,0.4613,0.4839,2.1115,,1.0996,0.5926,0.5383,19.935,20.3220,42.8228,91.825,,46.5550,44.6889,0.0327,,,,-99.0,,-99.0,-99.0,26.9647,,26.9655,,0.6354,85.3121,,7.532,,1.9043E+00,,1.0000E-12,,5.6258,5.6263,0.9010,,6.549,30.165,,,,,,,,,,,,
CalCOFI,2007SR,057,59,2007_057u,24-Jul-2020 05:35:34,23-Jul-2020 21:35:34,33.81486,-121.84344,080.0 070.0,080.0,070.0,475.000,478.960,,5.6672,,5.6674,,5.6673,34.1967,,34.1969,34.1980,,34.1996,34.1983,0.4643,,0.4674,0.4900,2.1109,,1.0982,0.5912,0.5406,20.190,20.5882,43.0009,91.796,,46.5076,44.7543,0.0317,,,,-99.0,,-99.0,-99.0,26.9642,,26.9652,,0.6354,85.3122,,7.532,,1.9043E+00,,1.0000E-12,,5.6269,5.6271,0.9010,,6.632,30.155,,,,,,,,,,,,
CalCOFI,2007SR,057,59,2007_057u,24-Jul-2020 05:35:35,23-Jul-2020 21:35:35,33.81486,-121.84344,080.0 070.0,080.0,070.0,474.000,477.950,,5.6698,,5.6701,,5.6700,34.1963,,34.1965,34.1976,,34.1992,34.1979,0.4716,,0.4751,0.4976,2.1103,,1.0967,0.5897,0.5437,20.508,20.9202,43.2230,91.771,,46.4667,44.8449,0.0325,,,,-99.0,,-99.0,-99.0,26.9636,,26.9645,,0.6356,85.3089,,7.532,,1.9043E+00,,1.0000E-12,,5.6296,5.6298,0.9010,,6.737,30.149,,,,,,,,,,,,
CalCOFI,2007SR,057,59,2007_057u,24-Jul-2020 05:35:36,23-Jul-2020 21:35:36,33.81486,-121.84344,080.0 070.0,080.0,070.0,473.000,476.941,,5.6733,,5.6733,,5.6733,34.1957,,34.1959,34.1969,,34.1985,34.1972,0.4735,,0.4771,0.4996,2.1098,,1.0955,0.5885,0.5441,20.592,21.0079,43.2816,91.752,,46.4356,44.8586,0.0312,,,,-99.0,,-99.0,-99.0,26.9627,,26.9636,,0.6355,85.3109,,7.533,,1.9043E+00,,1.0000E-12,,5.6332,5.6332,0.9010,,6.765,30.145,,,,,,,,,,,,
CalCOFI,2007SR,057,59,2007_057u,24-Jul-2020 05:35:37,23-Jul-2020 21:35:37,33.81486,-121.84344,080.0 070.0,080.0,070.0,472.000,475.931,,5.6850,,5.6853,,5.6852,34.1935,,34.1937,34.1950,,34.1966,34.1952,0.4751,,0.4787,0.5013,2.1117,,1.1001,0.5931,0.5472,20.663,21.0820,43.3312,91.834,,46.5697,44.9505,0.0329,,,,-99.0,,-99.0,-99.0,26.9594,,26.9606,,0.6356,85.3081,,7.534,,1.9043E+00,,1.0000E-12,,5.6449,5.6452,0.9010,,6.790,30.180,,,,,,,,,,,,
CalCOFI,2007SR,057,59,2007_057u,24-Jul-2020 05:35:38,23-Jul-2020 21:35:38,33.81486,-121.84344,080.0 070.0,080.0,070.0,471.000,474.922,,5.6917,,5.6917,,5.6917,34.1927,,34.1929,34.1940,,34.1956,34.1943,0.4822,,0.4862,0.5087,2.1113,,1.0991,0.5921,0.5504,20.969,21.4014,43.5449,91.817,,46.5419,45.0434,0.0330,,,,-99.0,,-99.0,-99.0,26.9580,,26.9590,,0.6357,85.3059,,7.534,,1.9043E+00,,1.0000E-12,,5.6516,5.6517,0.9010,,6.892,30.178,,,,,,,,,,,,
CalCOFI,2007SR,057,59,2007_057u,24-Jul-2020 05:35:39,23-Jul-2020 21:35:39,33.81486,-121.84344,080.0 070.0,080.0,070.0,470.000,473.912,,5.6981,,5.6989,,5.6985,34.1918,,34.1920,34.1931,,34.1947,34.1934,0.4839,,0.4879,0.5104,2.1045,,1.0829,0.5754,0.5429,21.043,21.4787,43.5966,91.522,,46.0596,44.8281,0.0328,,,,-99.0,,-99.0,-99.0,26.9565,,26.9574,,0.6354,85.3136,,7.534,,1.9043E+00,,1.0000E-12,,5.6581,5.6589,0.9010,,6.917,30.086,,,,,,,,,,,,
CalCOFI,2007SR,057,59,2007_057u,24-Jul-2020 05:35:40,23-Jul-2020 21:35:40,33.81486,-121.84344,080.0 070.0,080.0,070.0,469.000,472.903,,5.7032,,5.7031,,5.7032,34.1908,,34.1910,34.1921,,34.1937,34.1924,0.4843,,0.4883,0.5109,2.1082,,1.0917,0.5845,0.5477,21.060,21.4964,43.6085,91.680,,46.3179,44.9632,0.0327,,,,-99.0,,-99.0,-99.0,26.9551,,26.9561,,0.6355,85.3096,,7.534,,1.9043E+00,,1.0000E-12,,5.6633,5.6632,0.9010,,6.924,30.141,,,,,,,,,,,,
CalCOFI,2007SR,057,59,2007_057u,24-Jul-2020 05:35:41,23-Jul-2020 21:35:41,33.81486,-121.84344,080.0 070.0,080.0,070.0,468.000,471.893,,5.7059,,5.7061,,5.7060,34.1902,,34.1904,34.1915,,34.1931,34.1918,0.4919,,0.4963,0.5188,2.1065,,1.0876,0.5803,0.5496,21.393,21.8441,43.8410,91.608,,46.2002,45.0206,0.0327,,,,-99.0,,-99.0,-99.0,26.9543,,26.9553,,0.6362,85.2945,,7.534,,1.9043E+00,,1.0000E-12,,5.6661,5.6663,0.9010,,7.034,30.119,,,,,,,,,,,,
CalCOFI,2007SR,057,59,2007_057u,24-Jul-2020 05:35:42,23-Jul-2020 21:35:42,33.81486,-121.84344,080.0 070.0,080.0,070.0,467.000,470.884,,5.7094,,5.7093,,5.7094,34.1893,,34.1895,34.1906,,34.1922,34.1909,0.4983,,0.5030,0.5254,2.1157,,1.1096,0.6030,0.5642,21.671,22.1343,44.0352,92.009,,46.8558,45.4455,0.0323,,,,-99.0,,-99.0,-99.0,26.9531,,26.9542,,0.6353,85.3151,,7.534,,1.9043E+00,,1.0000E-12,,5.6697,5.6696,0.9010,,7.125,30.253,,,,,,,,,,,,
CalCOFI,2007SR,057,59,2007_057u,24-Jul-2020 05:35:43,23-Jul-2020 21:35:43,33.81486,-121.84344,080.0 070.0,080.0,070.0,466.000,469.874,,5.7129,,5.7131,,5.7130,34.1883,,34.1885,34.1894,,34.1910,34.1898,0.5043,,0.5092,0.5317,2.1160,,1.1103,0.6037,0.5677,21.930,22.4046,44.2161,92.019,,46.8722,45.5442,0.0321,,,,-99.0,,-99.0,-99.0,26.9519,,26.9527,,0.6361,85.2978,,7.534,,1.9043E+00,,1.0000E-12,,5.6732,5.6734,0.9010,,7.211,30.259,,,,,,,,,,,,
CalCOFI,2007SR,057,59,2007_057u,24-Jul-2020 05:35:44,23-Jul-2020 21:35:44,33.81486,-121.84344,080.0 070.0,080.0,070.0,465.000,468.865,,5.7188,,5.7205,,5.7197,34.1869,,34.1871,34.1881,,34.1897,34.1884,0.5052,,0.5102,0.5326,2.1084,,1.0922,0.5850,0.5588,21.970,22.4464,44.2440,91.691,,46.3359,45.2900,0.0328,,,,-99.0,,-99.0,-99.0,26.9501,,26.9508,,0.6362,85.2946,,7.534,,1.9043E+00,,1.0000E-12,,5.6792,5.6809,0.9010,,7.225,30.156,,,,,,,,,,,,
CalCOFI,2007SR,057,59,2007_057u,24-Jul-2020 05:35:45,23-Jul-2020 21:35:45,33.81486,-121.84344,080.0 070.0,080.0,070.0,464.000,467.856,,5.7309,,5.7309,,5.7309,34.1841,,34.1843,34.1853,,34.1869,34.1856,0.5107,,0.5159,0.5383,2.1095,,1.0948,0.5877,0.5630,22.208,22.6948,44.4102,91.740,,46.4160,45.4131,0.0325,,,,-99.0,,-99.0,-99.0,26.9463,,26.9473,,0.6356,85.3086,,7.534,,1.9043E+00,,1.0000E-12,,5.6913,5.6913,0.9010,,7.306,30.179,,,,,,,,,,,,